Regional Weather Roundup
Issued by NWS

Home | Current Version | Previous Version | Text Only | Print | Product List | Glossary Off
Versions: 1 2 3 4 5 6 7 8 9 10 11 12 13 14 15 16 17 18 19 20 21 22 23 24 25 26 27 28 29 30 31 32 33 34 35 36 37 38 39 40 41 42 43 44 45 46 47 48 49 50

000
ASUS43 KMPX 230401
RWRMN
WEATHER ROUNDUP FOR MINNESOTA
NATIONAL WEATHER SERVICE TWIN CITIES/CHANHASSEN MN
1100 PM CDT TUE MAY 22 2018


NOTE: "FAIR" INDICATES FEW OR NO CLOUDS BELOW 12,000 FEET WITH NO
SIGNIFICANT WEATHER AND/OR OBSTRUCTIONS TO VISIBILITY. N/A MEANS
CURRENT SKY AND/OR WEATHER CONDITIONS ARE NOT AVAILABLE.

MNZ060>063-068>070-230500-
   Twin Cities Metro

CITY           SKY/WX    TMP DP  RH WIND       PRES   REMARKS
TWIN CITIES    MOCLDY    67  58  72 SE7       30.05R
ST PAUL        FAIR      64  57  78 S5        30.05R
CRYSTAL        FAIR      66  56  70 SE3       30.04R
BLAINE         FAIR      63  55  77 CALM      30.06R
LAKEVILLE      FAIR      63  57  82 SE6       30.06R
EDEN PRAIRIE   FAIR      67  56  67 E8        30.04R
SOUTH ST PAUL  FAIR      65  56  72 CALM      30.05S
LAKE ELMO      FAIR      59  55  88 CALM      30.07R
$$
MNZ001>005-007-008-013>017-022>024-027-028-230500-
   Northwest Minnesota

CITY           SKY/WX    TMP DP  RH WIND       PRES   REMARKS
BEMIDJI        FAIR      60  53  78 SE6       30.04S
HALLOCK        FAIR      70  54  56 SE7       29.98R
ROSEAU         FAIR      64  54  68 SE6       30.01S
WARROAD        FAIR      59  54  82 SE3       30.02S
THIEF RVR FALL FAIR      67  54  63 SE5       30.02R
CROOKSTON      FAIR      64  54  68 SE7       30.01R
FOSSTON        FAIR      61  48  63 SE3       30.03S
DETROIT LAKES  FAIR      66  55  68 SE6       30.04S
MOORHEAD       FAIR      70  54  56 SE6       30.00R
PARK RAPIDS    FAIR      65  55  70 SE6       30.05R
MAHNOMEN       FAIR      66  55  69 SE5       30.02R
$$
MNZ006-009>011-018-025>026-230500-
   North Central Minnesota

CITY           SKY/WX    TMP DP  RH WIND       PRES   REMARKS
BAUDETTE       FAIR      58  51  78 CALM      30.03R
FLAG ISLAND    FAIR      63  54  72 CALM      30.00S
INTL FALLS     FAIR      51  48  89 NW3       30.03R
WASKISH          N/A     57  54  88 CALM      30.03S
BIG FORK       FAIR      55  52  88 CALM      30.05R
LONGVILLE      FAIR      55  54  94 CALM      30.06R
GRAND RAPIDS   FAIR      59  55  87 S3        30.08R
CRANE LAKE     FAIR      52  46  82 CALM      30.05R
ORR            FAIR      63  52  67 CALM      30.02S HAZE
COOK           FAIR      61  54  77 CALM      30.06R
WALKER         FAIR      60  55  83 CALM      30.04S
$$
MNZ012-019>021-037-230500-
   Northeast Minnesota

CITY           SKY/WX    TMP DP  RH WIND       PRES   REMARKS
DULUTH         FAIR      63  53  70 W7        30.06R
ELY            FAIR      55  46  71 CALM      30.04S
HIBBING        FAIR      54  51  90 CALM      30.05R
EVELETH        FAIR      59  54  82 CALM      30.06S
DULUTH HARBOR  FAIR      64  57  77 SW6       30.04S
TWO HARBORS    FAIR      64  55  72 W3        30.03R
SILVER BAY     FAIR      57  54  88 CALM      30.03R
GRAND MARAIS     N/A     45  39  79 W8        30.02S
G MARAIS ARPRT FAIR      61  48  63 SW3       30.06F
$$
MNZ029>031-032-039>041-046>048-054>057-064-230500-
   West Central Minnesota

CITY           SKY/WX    TMP DP  RH WIND       PRES   REMARKS
FERGUS FALLS   FAIR      70  55  60 SE10      29.98R
WHEATON        CLOUDY    70  55  60 E9        30.01R
MORRIS         CLOUDY    68  55  64 E13       30.00R
ALEXANDRIA     FAIR      67  55  65 E8        30.05R
ELBOW LAKE     FAIR      66  57  71 SE12      30.02R
WADENA         FAIR      61  54  77 CALM      30.05R
GLENWOOD       FAIR      63  55  77 E7        30.05R
APPLETON       CLOUDY    72  55  56 E8        29.99R
BENSON         PTCLDY    68  57  68 SE6       30.03R
ORTONVILLE     CLOUDY    72  57  60 E12       29.99R
MADISON        CLOUDY    72  57  60 E9        29.99R
WILLMAR        FAIR      66  57  72 E9        30.05R
$$
MNZ033>034-036-042>043-049>051-058-059-230500-
   Central Minnesota

CITY           SKY/WX    TMP DP  RH WIND       PRES   REMARKS
ST CLOUD       FAIR      63  55  75 E6        30.05R
SAUK CENTRE    FAIR      62  56  81 E6        30.05R
PAYNESVILLE    FAIR      64  58  82 CALM      30.05R
PINE RIVER     FAIR      54  50  87 CALM      30.09R
BRAINERD       FAIR      59  54  83 CALM      30.06R
STAPLES        FAIR      61  54  77 E3        30.06R
LONG PRAIRIE   FAIR      59  54  82 NE3       30.05S
LITTLE FALLS   FAIR      54  54 100 CALM      30.06R
LITCHFIELD     FAIR      66  59  77 E8        30.04R
BUFFALO        FAIR      62  53  73 E5        30.06R
MAPLE LAKE     FAIR      65  58  78 CALM      30.06R
HUTCHINSON     FAIR      67  58  74 E7        30.05R
$$
MNZ037-044-045-052-053-230500-
   East Central Minnesota

CITY           SKY/WX    TMP DP  RH WIND       PRES   REMARKS
PRINCETON      FAIR      64  57  77 CALM      30.06R
MORA           FAIR      55  54  94 CALM      30.08R
CAMBRIDGE      FAIR      63  54  72 CALM      30.06R
RUSH CITY      FAIR      56  54  93 CALM      30.06S
MOOSE LAKE     MOCLDY    54  52  94 CALM      30.04S
HINCKLEY       FAIR      54  54 100 CALM      30.06S
CLOQUET        FAIR      57  50  77 CALM      30.06S
MCGREGOR       FAIR      61  52  72 CALM      30.06S
$$
MNZ071>073-080-081-089-090-097-098-230500-
   Southwest Minnesota

CITY           SKY/WX    TMP DP  RH WIND       PRES   REMARKS
MONTEVIDEO     CLOUDY    68  55  64 SE9       30.01R
GRANITE FALLS  CLOUDY    70  58  66 E5        30.02R
CANBY          CLOUDY    70  57  63 SE6       30.00R
MARSHALL       CLOUDY    70  59  68 SE8       30.00R
REDWOOD FALLS  CLOUDY    70  56  61 E8        30.00R
OLIVIA         CLOUDY    70  59  68 E8        30.02R
PIPESTONE      PTCLDY    70  61  73 SE5       30.00S
WINDOM         CLOUDY    70  50  49 E6        30.01S
WORTHINGTON    MOCLDY    68  63  84 SE7       30.02R
JACKSON        PTCLDY    66  61  82 SE6       30.03R
TRACY          CLOUDY    70  62  77 SE5       30.00S
SLAYTON        CLOUDY    69  61  76 E9        30.01S
$$
MNZ065>067-074>077-082>085-091>093-230500-
   South Central Minnesota

CITY           SKY/WX    TMP DP  RH WIND       PRES   REMARKS
MANKATO        FAIR      68  59  73 SE13      30.04R
NEW ULM        PTCLDY    70  55  60 E7        30.02R
ST JAMES       CLOUDY    70  57  64 E6        30.02S
FAIRMONT       CLOUDY    71  61  70 SE10      30.02R
GLENCOE        FAIR      67  57  70 E7        30.03R
FARIBAULT      FAIR      66  61  82 CALM      30.06R
OWATONNA       FAIR      64  59  82 SE13      30.05S
WASECA         FAIR      63  55  77 E9        30.06R
ALBERT LEA     FAIR      66  55  68 SE9       30.06R
$$
MNZ078>079-086>088-094>096-230500-
   Southeast Minnesota

CITY           SKY/WX    TMP DP  RH WIND       PRES   REMARKS
ROCHESTER      FAIR      59  57  93 SE9       30.08R
RED WING       FAIR      63  55  77 CALM      30.06R
STANTON        FAIR      65  58  77 CALM      30.05R
DODGE CENTER   FAIR      61  57  88 SE8       30.07S
WINONA         FAIR      59  57  94 CALM      30.06S
AUSTIN         FAIR      63  57  82 E6        30.07R
PRESTON        FAIR      60  56  88 SE5       30.09S
$$
ABBREVIATIONS USED IN REMARKS
   TC - TEMPERATURES IN CELSIUS
  WCI - WIND CHILL INDEX
   HX - HEAT INDEX
  VSB - VISIBILITY
$$



USA.gov is the U.S. government's official web portal to all federal, state and local government web resources and services.